Location: Newark
(33.8183°N, 118.0392°W)
Time: 02:28:43
(UTC+00:00)

LightSail 2 - Pass Details

Date: 21 October 2019
Orbit: 700 x 727 km, 24.0° (Epoch: 17 November)

Event Time Altitude Azimuth Distance (km) Brightness Sun altitude
Rises 01:48:23 0° 255° (WSW) 3,071 10.7 -8.2°
Reaches altitude 10° 01:51:18 10° 240° (WSW) 2,157 8.9 -8.8°
Maximum altitude 01:55:06 21° 191° (S) 1,539 7.1 -9.6°
Drops below altitude 10° 01:58:56 10° 142° (SE) 2,168 7.3 -10.4°
Enters shadow 02:00:53 - 131° (SE) 2,768 7.8 -10.8°
